Retour au catalogue

FENGYUN 1C DEB

ActifPO
NORAD 31924·DEBRIS·🇨🇳 China

Lancé May 10, 1999 depuis Taiyuan Satellite Launch Center

Loading…

Prochains Passages (prochaines 24 heures)

TLE

FraisSource: Space-Track

Époque: Sep 14, 2026, 07:22 UTC

1 31924U 99025CMB 26257.30707662  .00000599  00000-0  61047-3 0  9991
2 31924  98.4201  23.1174 0271378  86.8938 276.3220 13.64792242952258

Suivez FENGYUN 1C DEB en temps réel avec AllMySat

Download on the App Store